User: anonymous
Location: Unspecified
(0.0000°N, 0.0000°E)
Time: 08:03:55
(UTC+00:00)
Language:

ASTRA 1KR - Orbit

View from above orbital plane
View from above orbital plane
View from above satellite
View from above satellite

Ground track
Ground track

The orbit data is extracted from the following two-line orbital elements,

1 29055U 06012A   14261.27232624  .00000095  00000-0  00000+0 0  1335
2 29055 000.0809 276.0786 0004530 288.2534 270.0022 01.00272265 30786
Epoch (UTC): 18 September 2014 06:32:08
Eccentricity: 0.0004530
inclination: 0.0809°
perigee height: 35767 km
apogee height: 35805 km
right ascension of ascending node: 276.0786°
argument of perigee: 288.2534°
revolutions per day: 1.00272265
mean anomaly at epoch: 270.0022°
orbit number at epoch: 3078

The dashed part of the orbit path shows where the satellite is in the earth's shadow,  

DLR